Project,Study,Ord_Occ,Event_Num,Cast_ID,Date_Time_UTC,Date_Time_PST,Lat_Dec,Lon_Dec,Sta_ID,Line,Sta,Depth,Pressure,PrQ,Temp1,Temp1Q,Temp2,Temp2Q,TempAve,Salt1,Salt1Q,Salt1_Corr,Salt2,Salt2Q,Salt2_Corr,SaltAve_Corr,Ox1,Ox1Q,Ox1_CruiseCorr,Ox1_StaCorr,Ox2,Ox2Q,Ox2_CruiseCorr,Ox2_StaCorr,OxAve_StaCorr,Ox1uM,Ox1uM_CruiseCorr,Ox1uM_StaCorr,Ox2uM,Ox2uM_CruiseCorr,Ox2uM_StaCorr,OxAveuM_StaCorr,FluorV,FluorQ,EstChl_CruiseCorr,EstChl_StaCorr,ISUSV,ISUSQ,EstNO3_CruiseCorr,EstNO3_StaCorr,SigThetaTS1,SigThetaTS1Q,SigThetaTS2,SigThetaTS2Q,BAT,XMiss,TransQ,pH,pHQ,SPAR,SPARQ,PAR,PARQ,PoT1,PoT2,DynHt,SVA,OxSat1,OxSat2,BTL_Depth,BTL_Temp,SaltB,OxB,OxBuM,Chl-a,Phaeo,NO3,NO2,NH4,PO4,SIL
CalCOFI,2101RL,056,,2101_056d,30-Jan-2021 01:37:48,29-Jan-2021 17:37:48,33.24420,-121.44038,083.3 070.0,083.3,070.0,3.000,3.021,,12.8418,,12.8426,,12.8422,33.1550,,33.1608,33.1529,,33.1549,33.1579,5.7814,,6.0507,6.0737,5.6618,,6.0114,6.0599,6.0668,251.901,263.9502,233.0068,246.691,280.5703,231.3701,232.1885,0.1371,,0.8752,0.7577, ,, , ,24.9950,,24.9932,,0.8666,80.5222,,,,1.4779E+01,,1.0000E-12,,12.8414,12.8422,0.0009,295.324,96.105,94.118,,,,,,,,,,,,
CalCOFI,2101RL,056,,2101_056d,30-Jan-2021 01:37:49,29-Jan-2021 17:37:49,33.24420,-121.44038,083.3 070.0,083.3,070.0,4.000,4.029,,12.8354,,12.8326,,12.8340,33.1551,,33.1609,33.1532,,33.1552,33.1581,5.7808,,6.0501,6.0731,5.6540,,6.0031,6.0514,6.0623,251.873,263.9209,232.9814,246.352,280.5391,231.0579,232.0197,0.1332,,0.8433,0.7324, ,, , ,24.9964,,24.9954,,0.8662,80.5303,,,,1.4779E+01,,1.0000E-12,,12.8348,12.8320,0.0039,295.219,96.082,93.969,4,,33.1594,6.017,262.49,0.713,0.166,,,,,
CalCOFI,2101RL,056,,2101_056d,30-Jan-2021 01:37:52,29-Jan-2021 17:37:52,33.24418,-121.44038,083.3 070.0,083.3,070.0,5.000,5.036,,12.8412,,12.8410,,12.8411,33.1550,,33.1608,33.1529,,33.1549,33.1579,5.7735,,6.0424,6.0654,5.6736,,6.0239,6.0726,6.0690,251.558,263.5911,232.6951,247.206,280.1888,231.8445,232.2698,0.1306,,0.8219,0.7154, ,, , ,24.9952,,24.9936,,0.8662,80.5295,,,,1.4779E+01,,1.0000E-12,,12.8406,12.8404,0.0068,295.363,95.973,94.311,,,,,,,,,,,,
CalCOFI,2101RL,056,,2101_056d,30-Jan-2021 01:37:55,29-Jan-2021 17:37:55,33.24418,-121.44038,083.3 070.0,083.3,070.0,6.000,6.043,,12.8343,,12.8325,,12.8334,33.1551,,33.1609,33.1532,,33.1552,33.1581,5.7719,,6.0408,6.0637,5.6670,,6.0169,6.0655,6.0646,251.486,263.5157,232.6296,246.915,280.1088,231.5764,232.1030,0.1378,,0.8809,0.7622, ,, , ,24.9967,,24.9955,,0.8659,80.5355,,,,1.4779E+01,,1.0000E-12,,12.8335,12.8317,0.0098,295.248,95.932,94.184,,,,,,,,,,,,
CalCOFI,2101RL,056,,2101_056d,30-Jan-2021 01:37:57,29-Jan-2021 17:37:57,33.24415,-121.44037,083.3 070.0,083.3,070.0,7.000,7.050,,12.8324,,12.8319,,12.8322,33.1552,,33.1610,33.1532,,33.1552,33.1581,5.7850,,6.0545,6.0775,5.6677,,6.0177,6.0662,6.0719,252.056,264.1124,233.1477,246.949,280.7426,231.6078,232.3778,0.1383,,0.8850,0.7655, ,, , ,24.9971,,24.9957,,0.8652,80.5508,,,,1.4779E+01,,1.0000E-12,,12.8315,12.8310,0.0128,295.234,96.146,94.196,,,,,,,,,,,,
CalCOFI,2101RL,056,,2101_056d,30-Jan-2021 01:37:59,29-Jan-2021 17:37:59,33.24414,-121.44036,083.3 070.0,083.3,070.0,8.000,8.057,,12.8304,,12.8329,,12.8317,33.1554,,33.1612,33.1533,,33.1553,33.1583,5.7806,,6.0499,6.0728,5.6571,,6.0064,6.0548,6.0638,251.866,263.9135,232.9750,246.483,280.5313,231.1786,232.0768,0.1575,,1.0424,0.8884, ,, , ,24.9977,,24.9955,,0.8648,80.5582,,,,1.4779E+01,,1.0000E-12,,12.8293,12.8318,0.0158,295.201,96.070,94.020,,,,,,,,,,,,
CalCOFI,2101RL,056,,2101_056d,30-Jan-2021 01:38:02,29-Jan-2021 17:38:02,33.24414,-121.44038,083.3 070.0,083.3,070.0,9.000,9.064,,12.8310,,12.8310,,12.8310,33.1553,,33.1611,33.1534,,33.1554,33.1583,5.7801,,6.0494,6.0723,5.6599,,6.0094,6.0578,6.0651,251.845,263.8915,232.9559,246.606,280.5080,231.2919,232.1239,0.1334,,0.8449,0.7337, ,, , ,24.9975,,24.9960,,0.8663,80.5265,,,,1.4779E+01,,1.0000E-12,,12.8298,12.8298,0.0187,295.249,96.063,94.063,,,,,,,,,,,,
CalCOFI,2101RL,056,,2101_056d,30-Jan-2021 01:38:04,29-Jan-2021 17:38:04,33.24412,-121.44038,083.3 070.0,083.3,070.0,10.000,10.071,,12.8189,,12.8191,,12.8190,33.1556,,33.1614,33.1537,,33.1557,33.1586,5.7825,,6.0519,6.0748,5.6749,,6.0253,6.0740,6.0744,251.950,264.0015,233.0513,247.261,280.6248,231.8951,232.4732,0.1343,,0.8523,0.7395, ,, , ,25.0002,,24.9986,,0.8657,80.5399,,,,1.4779E+01,,1.0000E-12,,12.8176,12.8178,0.0217,295.019,96.079,94.290,10,,33.1584,6.010,262.21,0.682,0.200,,,,,
CalCOFI,2101RL,056,,2101_056d,30-Jan-2021 01:38:06,29-Jan-2021 17:38:06,33.24412,-121.44038,083.3 070.0,083.3,070.0,11.000,11.079,,12.8194,,12.8186,,12.8190,33.1555,,33.1613,33.1536,,33.1556,33.1585,5.7782,,6.0474,6.0703,5.6634,,6.0131,6.0616,6.0660,251.762,263.8047,232.8805,246.758,280.4157,231.4319,232.1562,0.1488,,0.9711,0.8330, ,, , ,25.0000,,24.9987,,0.8668,80.5182,,,,1.4779E+01,,1.0000E-12,,12.8179,12.8171,0.0247,295.057,96.008,94.097,,,,,,,,,,,,
CalCOFI,2101RL,056,,2101_056d,30-Jan-2021 01:38:10,29-Jan-2021 17:38:10,33.24409,-121.44039,083.3 070.0,083.3,070.0,12.000,12.086,,12.8205,,12.8208,,12.8207,33.1555,,33.1613,33.1537,,33.1557,33.1585,5.7711,,6.0399,6.0628,5.6631,,6.0128,6.0613,6.0621,251.452,263.4802,232.5987,246.748,280.0710,231.4226,232.0107,0.1424,,0.9186,0.7920, ,, , ,24.9998,,24.9983,,0.8674,80.5048,,,,1.4779E+01,,1.0000E-12,,12.8189,12.8192,0.0282,295.108,95.892,94.098,,,,,,,,,,,,
CalCOFI,2101RL,056,,2101_056d,30-Jan-2021 01:38:14,29-Jan-2021 17:38:14,33.24407,-121.44037,083.3 070.0,083.3,070.0,13.000,13.093,,12.8177,,12.8171,,12.8174,33.1557,,33.1615,33.1540,,33.1560,33.1588,5.7745,,6.0435,6.0664,5.6707,,6.0209,6.0694,6.0679,251.597,263.6319,232.7305,247.078,280.2322,231.7266,232.2286,0.1427,,0.9211,0.7939, ,, , ,25.0005,,24.9993,,0.8670,80.5135,,,,1.4779E+01,,1.0000E-12,,12.8159,12.8153,0.0313,295.065,95.942,94.217,,,,,,,,,,,,
CalCOFI,2101RL,056,,2101_056d,30-Jan-2021 01:38:23,29-Jan-2021 17:38:23,33.24404,-121.44038,083.3 070.0,083.3,070.0,14.000,14.100,,12.8175,,12.8179,,12.8177,33.1558,,33.1616,33.1540,,33.1560,33.1588,5.7787,,6.0479,6.0708,5.6630,,6.0127,6.0611,6.0660,251.782,263.8256,232.8987,246.739,280.4379,231.4144,232.1566,0.1404,,0.9023,0.7791, ,, , ,25.0007,,24.9992,,0.8665,80.5238,,,,1.4280E+01,,1.0000E-12,,12.8157,12.8160,0.0352,295.073,96.012,94.089,,,,,,,,,,,,
CalCOFI,2101RL,056,,2101_056d,30-Jan-2021 01:38:28,29-Jan-2021 17:38:28,33.24402,-121.44038,083.3 070.0,083.3,070.0,15.000,15.107,,12.8326,,12.8290,,12.8308,33.1553,,33.1611,33.1535,,33.1555,33.1583,5.7830,,6.0524,6.0754,5.6682,,6.0182,6.0667,6.0711,251.969,264.0213,233.0686,246.970,280.6459,231.6271,232.3479,0.1370,,0.8744,0.7571, ,, , ,24.9974,,24.9967,,0.8659,80.5358,,,,1.3605E+01,,1.0000E-12,,12.8306,12.8270,0.0397,295.416,96.113,94.198,,,,,,,,,,,,
CalCOFI,2101RL,056,,2101_056d,30-Jan-2021 01:38:35,29-Jan-2021 17:38:35,33.24395,-121.44033,083.3 070.0,083.3,070.0,16.000,16.115,,12.8329,,12.8333,,12.8331,33.1552,,33.1610,33.1533,,33.1553,33.1582,5.7695,,6.0383,6.0611,5.6595,,6.0090,6.0574,6.0593,251.380,263.4048,232.5333,246.589,279.9909,231.2762,231.9048,0.1359,,0.8654,0.7499, ,, , ,24.9973,,24.9957,,0.8667,80.5193,,,,1.2820E+01,,1.0000E-12,,12.8308,12.8311,0.0446,295.456,95.889,94.061,,,,,,,,,,,,
CalCOFI,2101RL,056,,2101_056d,30-Jan-2021 01:38:41,29-Jan-2021 17:38:41,33.24394,-121.44030,083.3 070.0,083.3,070.0,17.000,17.122,,12.8323,,12.8323,,12.8323,33.1552,,33.1610,33.1534,,33.1554,33.1582,5.7751,,6.0441,6.0670,5.6492,,5.9980,6.0463,6.0567,251.625,263.6613,232.7560,246.141,280.2633,230.8636,231.8098,0.1341,,0.8506,0.7382, ,, , ,24.9974,,24.9960,,0.8666,80.5206,,,,1.2932E+01,,1.0000E-12,,12.8301,12.8301,0.0485,295.467,95.981,93.888,,,,,,,,,,,,
CalCOFI,2101RL,056,,2101_056d,30-Jan-2021 01:38:47,29-Jan-2021 17:38:47,33.24386,-121.44030,083.3 070.0,083.3,070.0,18.000,18.129,,12.8283,,12.8288,,12.8286,33.1553,,33.1611,33.1536,,33.1556,33.1584,5.7595,,6.0278,6.0506,5.6604,,6.0099,6.0583,6.0545,250.944,262.9484,232.1370,246.627,279.5061,231.3112,231.7241,0.1389,,0.8900,0.7694, ,, , ,24.9983,,24.9969,,0.8657,80.5405,,,,1.2932E+01,,1.0000E-12,,12.8259,12.8264,0.0519,295.412,95.714,94.067,,,,,,,,,,,,
CalCOFI,2101RL,056,,2101_056d,30-Jan-2021 01:38:49,29-Jan-2021 17:38:49,33.24381,-121.44031,083.3 070.0,083.3,070.0,19.000,19.136,,12.8150,,12.8159,,12.8155,33.1561,,33.1619,33.1541,,33.1561,33.1590,5.7677,,6.0364,6.0593,5.6551,,6.0043,6.0526,6.0560,251.303,263.3242,232.4633,246.397,279.9053,231.0994,231.7814,0.1455,,0.9440,0.8119, ,, , ,25.0015,,24.9998,,0.8683,80.4858,,,,1.2932E+01,,1.0000E-12,,12.8125,12.8134,0.0551,295.129,95.825,93.955,,,,,,,,,,,,
CalCOFI,2101RL,056,,2101_056d,30-Jan-2021 01:38:53,29-Jan-2021 17:38:53,33.24375,-121.44032,083.3 070.0,083.3,070.0,20.000,20.143,,12.7997,,12.8008,,12.8003,33.1573,,33.1631,33.1549,,33.1569,33.1600,5.7638,,6.0323,6.0551,5.6434,,5.9919,6.0400,6.0476,251.131,263.1441,232.3069,245.888,279.7140,230.6306,231.4688,0.1612,,1.0727,0.9118, ,, , ,25.0055,,25.0034,,0.8640,80.5740,,,,1.2932E+01,,1.0000E-12,,12.7970,12.7981,0.0580,294.776,95.730,93.732,,,,,,,,,,,,
CalCOFI,2101RL,056,,2101_056d,30-Jan-2021 01:38:58,29-Jan-2021 17:38:58,33.24377,-121.44032,083.3 070.0,083.3,070.0,21.000,21.151,,12.7941,,12.7928,,12.7935,33.1568,,33.1626,33.1553,,33.1573,33.1600,5.7678,,6.0365,6.0594,5.6412,,5.9895,6.0377,6.0486,251.305,263.3263,232.4651,245.790,279.9075,230.5403,231.5027,0.1435,,0.9277,0.7990, ,, , ,25.0063,,25.0053,,0.8664,80.5243,,,,1.2932E+01,,1.0000E-12,,12.7913,12.7900,0.0610,294.729,95.785,93.680,21,,33.1583,6.004,261.94,0.861,0.111,,,,,
CalCOFI,2101RL,056,,2101_056d,30-Jan-2021 01:39:00,29-Jan-2021 17:39:00,33.24379,-121.44032,083.3 070.0,083.3,070.0,22.000,22.158,,12.7994,,12.8001,,12.7998,33.1568,,33.1626,33.1549,,33.1569,33.1598,5.7716,,6.0405,6.0634,5.6386,,5.9868,6.0348,6.0491,251.469,263.4979,232.6142,245.676,280.0899,230.4353,231.5248,0.1524,,1.0006,0.8560, ,, , ,25.0052,,25.0036,,0.8655,80.5434,,,,1.2932E+01,,1.0000E-12,,12.7965,12.7971,0.0640,294.854,95.858,93.650,,,,,,,,,,,,
CalCOFI,2101RL,056,,2101_056d,30-Jan-2021 01:39:03,29-Jan-2021 17:39:03,33.24380,-121.44032,083.3 070.0,083.3,070.0,23.000,23.165,,12.7948,,12.7956,,12.7952,33.1576,,33.1634,33.1554,,33.1574,33.1604,5.7606,,6.0289,6.0518,5.6319,,5.9796,6.0276,6.0397,250.993,262.9997,232.1815,245.387,279.5606,230.1692,231.1754,0.1657,,1.1096,0.9401, ,, , ,25.0067,,25.0049,,0.8655,80.5429,,,,1.2932E+01,,1.0000E-12,,12.7917,12.7925,0.0669,294.738,95.668,93.531,,,,,,,,,,,,
CalCOFI,2101RL,056,,2101_056d,30-Jan-2021 01:39:05,29-Jan-2021 17:39:05,33.24380,-121.44032,083.3 070.0,083.3,070.0,24.000,24.172,,12.7910,,12.7909,,12.7910,33.1576,,33.1634,33.1556,,33.1576,33.1605,5.7625,,6.0309,6.0538,5.6393,,5.9875,6.0356,6.0447,251.073,263.0834,232.2542,245.708,279.6495,230.4648,231.3595,0.1599,,1.0620,0.9036, ,, , ,25.0075,,25.0060,,0.8660,80.5333,,,,1.2932E+01,,1.0000E-12,,12.7878,12.7877,0.0699,294.691,95.691,93.645,,,,,,,,,,,,
CalCOFI,2101RL,056,,2101_056d,30-Jan-2021 01:39:10,29-Jan-2021 17:39:10,33.24377,-121.44032,083.3 070.0,083.3,070.0,25.000,25.179,,12.7896,,12.7901,,12.7899,33.1582,,33.1640,33.1560,,33.1580,33.1610,5.7586,,6.0269,6.0497,5.6321,,5.9799,6.0278,6.0388,250.907,262.9096,232.1033,245.392,279.4649,230.1738,231.1386,0.1594,,1.0579,0.9004, ,, , ,25.0082,,25.0065,,0.8609,80.6354,,,,1.2932E+01,,1.0000E-12,,12.7863,12.7868,0.0735,294.646,95.625,93.523,,,,,,,,,,,,
CalCOFI,2101RL,056,,2101_056d,30-Jan-2021 01:39:12,29-Jan-2021 17:39:12,33.24378,-121.44032,083.3 070.0,083.3,070.0,26.000,26.187,,12.7908,,12.7910,,12.7909,33.1590,,33.1648,33.1571,,33.1591,33.1620,5.7538,,6.0218,6.0446,5.6182,,5.9651,6.0129,6.0288,250.695,262.6877,231.9106,244.787,279.2292,229.6166,230.7636,0.1509,,0.9883,0.8465, ,, , ,25.0087,,25.0071,,0.8596,80.6620,,,,1.2932E+01,,1.0000E-12,,12.7873,12.7875,0.0767,294.629,95.548,93.295,,,,,,,,,,,,
CalCOFI,2101RL,056,,2101_056d,30-Jan-2021 01:39:13,29-Jan-2021 17:39:13,33.24381,-121.44032,083.3 070.0,083.3,070.0,27.000,27.194,,12.7908,,12.7910,,12.7909,33.1591,,33.1649,33.1573,,33.1593,33.1621,5.7631,,6.0316,6.0544,5.6255,,5.9728,6.0207,6.0376,251.099,263.1106,232.2778,245.106,279.6784,229.9104,231.0941,0.1542,,1.0153,0.8675, ,, , ,25.0088,,25.0074,,0.8581,80.6911,,,,1.2932E+01,,1.0000E-12,,12.7872,12.7874,0.0797,294.648,95.702,93.417,,,,,,,,,,,,
CalCOFI,2101RL,056,,2101_056d,30-Jan-2021 01:39:15,29-Jan-2021 17:39:15,33.24382,-121.44031,083.3 070.0,083.3,070.0,28.000,28.201,,12.7901,,12.7904,,12.7903,33.1593,,33.1651,33.1574,,33.1594,33.1623,5.7615,,6.0299,6.0527,5.6225,,5.9697,6.0175,6.0351,251.030,263.0384,232.2151,244.975,279.6017,229.7897,231.0024,0.1582,,1.0481,0.8928, ,, , ,25.0091,,25.0076,,0.8568,80.7181,,,,1.2932E+01,,1.0000E-12,,12.7864,12.7867,0.0826,294.644,95.674,93.366,,,,,,,,,,,,
CalCOFI,2101RL,056,,2101_056d,30-Jan-2021 01:39:21,29-Jan-2021 17:39:21,33.24383,-121.44029,083.3 070.0,083.3,070.0,29.000,29.209,,12.7903,,12.7906,,12.7905,33.1591,,33.1649,33.1572,,33.1592,33.1621,5.7533,,6.0213,6.0441,5.6149,,5.9616,6.0093,6.0267,250.673,262.6647,231.8907,244.645,279.2047,229.4858,230.6883,0.1576,,1.0432,0.8890, ,, , ,25.0089,,25.0074,,0.8570,80.7155,,,,1.2932E+01,,1.0000E-12,,12.7864,12.7867,0.0856,294.686,95.538,93.240,,,,,,,,,,,,
CalCOFI,2101RL,056,,2101_056d,30-Jan-2021 01:39:22,29-Jan-2021 17:39:22,33.24385,-121.44031,083.3 070.0,083.3,070.0,30.000,30.216,,12.7893,,12.7895,,12.7894,33.1595,,33.1653,33.1575,,33.1595,33.1624,5.7489,,6.0167,6.0395,5.6218,,5.9689,6.0167,6.0281,250.480,262.4627,231.7152,244.944,278.9901,229.7612,230.7382,0.1424,,0.9186,0.7920, ,, , ,25.0095,,25.0079,,0.8546,80.7636,,,,1.2932E+01,,1.0000E-12,,12.7852,12.7855,0.0885,294.659,95.463,93.352,,,,,,,,,,,,
CalCOFI,2101RL,056,,2101_056d,30-Jan-2021 01:39:24,29-Jan-2021 17:39:24,33.24386,-121.44032,083.3 070.0,083.3,070.0,31.000,31.223,,12.7894,,12.7896,,12.7895,33.1598,,33.1656,33.1579,,33.1599,33.1628,5.7440,,6.0116,6.0343,5.6202,,5.9672,6.0150,6.0247,250.266,262.2386,231.5207,244.873,278.7521,229.6958,230.6083,0.1514,,0.9924,0.8496, ,, , ,25.0097,,25.0082,,0.8562,80.7301,,,,1.2932E+01,,1.0000E-12,,12.7853,12.7855,0.0915,294.663,95.382,93.326,,,,,,,,,,,,
CalCOFI,2101RL,056,,2101_056d,30-Jan-2021 01:39:25,29-Jan-2021 17:39:25,33.24386,-121.44032,083.3 070.0,083.3,070.0,32.000,32.230,,12.7895,,12.7896,,12.7896,33.1603,,33.1661,33.1583,,33.1603,33.1632,5.7421,,6.0096,6.0323,5.6174,,5.9642,6.0120,6.0222,250.185,262.1539,231.4471,244.752,278.6620,229.5844,230.5158,0.1531,,1.0063,0.8605, ,, , ,25.0101,,25.0085,,0.8519,80.8166,,,,1.2932E+01,,1.0000E-12,,12.7852,12.7854,0.0945,294.655,95.352,93.280,,,,,,,,,,,,
CalCOFI,2101RL,056,,2101_056d,30-Jan-2021 01:39:26,29-Jan-2021 17:39:26,33.24387,-121.44032,083.3 070.0,083.3,070.0,33.000,33.238,,12.7899,,12.7901,,12.7900,33.1605,,33.1663,33.1585,,33.1605,33.1634,5.7500,,6.0179,6.0406,5.6234,,5.9706,6.0185,6.0296,250.528,262.5129,231.7589,245.014,279.0435,229.8257,230.7923,0.1508,,0.9875,0.8458, ,, , ,25.0102,,25.0086,,0.8499,80.8588,,,,1.2932E+01,,1.0000E-12,,12.7855,12.7857,0.0975,294.667,95.483,93.381,,,,,,,,,,,,
CalCOFI,2101RL,056,,2101_056d,30-Jan-2021 01:39:29,29-Jan-2021 17:39:29,33.24388,-121.44031,083.3 070.0,083.3,070.0,34.000,34.245,,12.7901,,12.7903,,12.7902,33.1605,,33.1663,33.1586,,33.1606,33.1635,5.7438,,6.0114,6.0341,5.6170,,5.9638,6.0116,6.0229,250.258,262.2303,231.5134,244.736,278.7432,229.5696,230.5415,0.1499,,0.9801,0.8401, ,, , ,25.0102,,25.0087,,0.8484,80.8874,,,,1.2155E+01,,1.0000E-12,,12.7855,12.7857,0.1016,294.695,95.381,93.275,,,,,,,,,,,,
CalCOFI,2101RL,056,,2101_056d,30-Jan-2021 01:39:33,29-Jan-2021 17:39:33,33.24386,-121.44030,083.3 070.0,083.3,070.0,35.000,35.252,,12.7900,,12.7903,,12.7902,33.1608,,33.1666,33.1587,,33.1607,33.1637,5.7382,,6.0055,6.0282,5.6084,,5.9547,6.0023,6.0153,250.015,261.9759,231.2926,244.361,278.4730,229.2243,230.2585,0.1405,,0.9031,0.7797, ,, , ,25.0105,,25.0088,,0.8477,80.9027,,,,1.2957E+01,,1.0000E-12,,12.7853,12.7857,0.1074,294.696,95.288,93.133,,,,,,,,,,,,
CalCOFI,2101RL,056,,2101_056d,30-Jan-2021 01:39:34,29-Jan-2021 17:39:34,33.24386,-121.44030,083.3 070.0,083.3,070.0,36.000,36.260,,12.7885,,12.7887,,12.7886,33.1610,,33.1668,33.1591,,33.1611,33.1640,5.7433,,6.0108,6.0336,5.6132,,5.9598,6.0075,6.0206,250.236,262.2072,231.4935,244.568,278.7188,229.4149,230.4542,0.1377,,0.8801,0.7616, ,, , ,25.0110,,25.0094,,0.8447,80.9635,,,,1.2456E+01,,1.0000E-12,,12.7836,12.7839,0.1102,294.673,95.370,93.209,,,,,,,,,,,,
CalCOFI,2101RL,056,,2101_056d,30-Jan-2021 01:39:35,29-Jan-2021 17:39:35,33.24385,-121.44031,083.3 070.0,083.3,070.0,37.000,37.267,,12.7882,,12.7885,,12.7884,33.1612,,33.1670,33.1593,,33.1613,33.1642,5.7340,,6.0011,6.0238,5.6114,,5.9579,6.0055,6.0147,249.833,261.7854,231.1272,244.491,278.2706,229.3440,230.2356,0.1435,,0.9277,0.7990, ,, , ,25.0112,,25.0096,,0.8421,81.0162,,,,1.1891E+01,,1.0000E-12,,12.7833,12.7836,0.1132,294.683,95.215,93.179,,,,,,,,,,,,
CalCOFI,2101RL,056,,2101_056d,30-Jan-2021 01:39:38,29-Jan-2021 17:39:38,33.24384,-121.44034,083.3 070.0,083.3,070.0,38.000,38.274,,12.7888,,12.7889,,12.7889,33.1611,,33.1669,33.1594,,33.1614,33.1642,5.7143,,5.9805,6.0030,5.6044,,5.9504,5.9980,6.0005,248.975,260.8872,230.3473,244.184,277.3165,229.0612,229.7043,0.1336,,0.8465,0.7350, ,, , ,25.0110,,25.0097,,0.8453,80.9506,,,,1.0963E+01,,1.0000E-12,,12.7837,12.7838,0.1162,294.722,94.890,93.063,,,,,,,,,,,,
CalCOFI,2101RL,056,,2101_056d,30-Jan-2021 01:39:39,29-Jan-2021 17:39:39,33.24384,-121.44034,083.3 070.0,083.3,070.0,39.000,39.281,,12.7883,,12.7885,,12.7884,33.1619,,33.1677,33.1599,,33.1619,33.1648,5.7303,,5.9972,6.0199,5.6106,,5.9570,6.0047,6.0123,249.671,261.6158,230.9799,244.453,278.0905,229.3090,230.1445,0.1439,,0.9309,0.8016, ,, , ,25.0118,,25.0102,,0.8399,81.0608,,,,1.1084E+01,,1.0000E-12,,12.7831,12.7833,0.1191,294.677,95.155,93.165,,,,,,,,,,,,
CalCOFI,2101RL,056,,2101_056d,30-Jan-2021 01:39:41,29-Jan-2021 17:39:41,33.24384,-121.44033,083.3 070.0,083.3,070.0,40.000,40.289,,12.7871,,12.7873,,12.7872,33.1623,,33.1681,33.1604,,33.1624,33.1653,5.7248,,5.9915,6.0141,5.6109,,5.9573,6.0050,6.0096,249.431,261.3646,230.7618,244.469,277.8236,229.3237,230.0428,0.1406,,0.9039,0.7803, ,, , ,25.0123,,25.0109,,0.8364,81.1313,,,,1.1192E+01,,1.0000E-12,,12.7817,12.7820,0.1222,294.649,95.061,93.169,,,,,,,,,,,,
CalCOFI,2101RL,056,,2101_056d,30-Jan-2021 01:39:45,29-Jan-2021 17:39:45,33.24384,-121.44032,083.3 070.0,083.3,070.0,41.000,41.296,,12.7860,,12.7858,,12.7859,33.1626,,33.1684,33.1609,,33.1629,33.1657,5.7010,,5.9666,5.9890,5.5968,,5.9424,5.9898,5.9894,248.393,260.2780,229.8183,243.854,276.6693,228.7573,229.2878,0.1245,,0.7720,0.6755, ,, , ,25.0128,,25.0116,,0.8352,81.1551,,,,1.1071E+01,,1.0000E-12,,12.7805,12.7804,0.1254,294.629,94.664,92.932,,,,,,,,,,,,
CalCOFI,2101RL,056,,2101_056d,30-Jan-2021 01:39:46,29-Jan-2021 17:39:46,33.24384,-121.44032,083.3 070.0,083.3,070.0,42.000,42.303,,12.7842,,12.7847,,12.7845,33.1633,,33.1691,33.1613,,33.1633,33.1662,5.7018,,5.9674,5.9898,5.5989,,5.9446,5.9921,5.9910,248.428,260.3146,229.8501,243.947,276.7082,228.8430,229.3466,0.1253,,0.7785,0.6807, ,, , ,25.0137,,25.0121,,0.8332,81.1965,,,,1.1084E+01,,1.0000E-12,,12.7785,12.7791,0.1283,294.570,94.673,92.966,,,,,,,,,,,,
CalCOFI,2101RL,056,,2101_056d,30-Jan-2021 01:39:48,29-Jan-2021 17:39:48,33.24384,-121.44032,083.3 070.0,083.3,070.0,43.000,43.311,,12.7831,,12.7834,,12.7833,33.1635,,33.1693,33.1617,,33.1637,33.1665,5.7139,,5.9801,6.0026,5.5990,,5.9447,5.9922,5.9974,248.958,260.8694,230.3318,243.951,277.2976,228.8467,229.5893,0.1343,,0.8523,0.7395, ,, , ,25.0141,,25.0127,,0.8324,81.2130,,,,1.1084E+01,,1.0000E-12,,12.7773,12.7776,0.1313,294.560,94.874,92.965,,,,,,,,,,,,
CalCOFI,2101RL,056,,2101_056d,30-Jan-2021 01:39:49,29-Jan-2021 17:39:49,33.24384,-121.44033,083.3 070.0,083.3,070.0,44.000,44.318,,12.7828,,12.7830,,12.7829,33.1637,,33.1695,33.1619,,33.1639,33.1667,5.7060,,5.9718,5.9943,5.5824,,5.9271,5.9743,5.9843,248.609,260.5041,230.0146,243.227,276.9095,228.1799,229.0973,0.1257,,0.7818,0.6834, ,, , ,25.0144,,25.0130,,0.8305,81.2507,,,,1.1084E+01,,1.0000E-12,,12.7770,12.7771,0.1342,294.560,94.741,92.689,,,,,,,,,,,,
CalCOFI,2101RL,056,,2101_056d,30-Jan-2021 01:39:50,29-Jan-2021 17:39:50,33.24384,-121.44034,083.3 070.0,083.3,070.0,45.000,45.325,,12.7790,,12.7792,,12.7791,33.1651,,33.1709,33.1633,,33.1653,33.1681,5.6955,,5.9608,5.9832,5.5755,,5.9197,5.9669,5.9751,248.154,260.0278,229.6011,242.926,276.4035,227.9026,228.7519,0.1265,,0.7884,0.6886, ,, , ,25.0163,,25.0148,,0.8278,81.3063,,,,1.1084E+01,,1.0000E-12,,12.7730,12.7732,0.1372,294.408,94.560,92.567,,,,,,,,,,,,
CalCOFI,2101RL,056,,2101_056d,30-Jan-2021 01:39:51,29-Jan-2021 17:39:51,33.24384,-121.44034,083.3 070.0,083.3,070.0,46.000,46.333,,12.7741,,12.7741,,12.7741,33.1671,,33.1729,33.1654,,33.1674,33.1702,5.7068,,5.9726,5.9951,5.5898,,5.9349,5.9823,5.9887,248.647,260.5439,230.0492,243.547,276.9518,228.4746,229.2619,0.1222,,0.7531,0.6603, ,, , ,25.0188,,25.0174,,0.8221,81.4228,,,,1.1084E+01,,1.0000E-12,,12.7679,12.7679,0.1402,294.193,94.740,92.796,,,,,,,,,,,,
CalCOFI,2101RL,056,,2101_056d,30-Jan-2021 01:39:55,29-Jan-2021 17:39:55,33.24383,-121.44034,083.3 070.0,083.3,070.0,47.000,47.340,,12.7764,,12.7754,,12.7759,33.1662,,33.1720,33.1647,,33.1667,33.1694,5.6772,,5.9417,5.9639,5.5841,,5.9289,5.9761,5.9700,247.354,259.1904,228.8739,243.299,275.5139,228.2462,228.5601,0.1159,,0.7015,0.6187, ,, , ,25.0176,,25.0167,,0.8206,81.4534,,,,1.1084E+01,,1.0000E-12,,12.7702,12.7692,0.1433,294.329,94.251,92.703,,,,,,,,,,,,
CalCOFI,2101RL,056,,2101_056d,30-Jan-2021 01:39:58,29-Jan-2021 17:39:58,33.24382,-121.44034,083.3 070.0,083.3,070.0,48.000,48.347,,12.7616,,12.7610,,12.7613,33.1705,,33.1763,33.1688,,33.1708,33.1736,5.6659,,5.9298,5.9520,5.5580,,5.9012,5.9480,5.9500,246.863,258.6764,228.4277,242.161,274.9679,227.1981,227.8129,0.1125,,0.6736,0.5961, ,, , ,25.0239,,25.0227,,0.8160,81.5460,,,,1.1084E+01,,1.0000E-12,,12.7552,12.7546,0.1463,293.758,94.038,92.245,,,,,,,,,,,,
CalCOFI,2101RL,056,,2101_056d,30-Jan-2021 01:39:59,29-Jan-2021 17:39:59,33.24382,-121.44035,083.3 070.0,083.3,070.0,49.000,49.355,,12.7531,,12.7524,,12.7528,33.1717,,33.1775,33.1700,,33.1720,33.1748,5.6404,,5.9031,5.9252,5.5392,,5.8812,5.9277,5.9265,245.751,257.5123,227.4169,241.342,273.7314,226.4438,226.9304,0.1224,,0.7548,0.6617, ,, , ,25.0265,,25.0253,,0.8143,81.5806,,,,1.1084E+01,,1.0000E-12,,12.7465,12.7458,0.1492,293.537,93.599,91.918,,,,,,,,,,,,
CalCOFI,2101RL,056,,2101_056d,30-Jan-2021 01:40:01,29-Jan-2021 17:40:01,33.24382,-121.44036,083.3 070.0,083.3,070.0,50.000,50.362,,12.7299,,12.7306,,12.7303,33.1734,,33.1792,33.1716,,33.1736,33.1764,5.5475,,5.8059,5.8273,5.4762,,5.8143,5.8598,5.8436,241.701,253.2728,223.7358,238.594,269.2277,223.9130,223.8244,0.1093,,0.6474,0.5747, ,, , ,25.0324,,25.0308,,0.8093,81.6838,,,,1.1084E+01,,1.0000E-12,,12.7233,12.7240,0.1522,293.001,92.014,90.832,50,,33.1850,5.878,256.44,0.578,0.154,,,,,
CalCOFI,2101RL,056,,2101_056d,30-Jan-2021 01:40:02,29-Jan-2021 17:40:02,33.24383,-121.44037,083.3 070.0,083.3,070.0,51.000,51.370,,12.6816,,12.6816,,12.6816,33.1745,,33.1803,33.1729,,33.1749,33.1776,5.4687,,5.7234,5.7443,5.4148,,5.7491,5.7937,5.7690,238.266,249.6770,220.6136,235.919,265.4079,221.4493,221.0315,0.1117,,0.6671,0.5907, ,, , ,25.0426,,25.0414,,0.8045,81.7820,,,,1.1084E+01,,1.0000E-12,,12.6748,12.6748,0.1552,292.052,90.617,89.723,,,,,,,,,,,,
CalCOFI,2101RL,056,,2101_056d,30-Jan-2021 01:40:03,29-Jan-2021 17:40:03,33.24384,-121.44038,083.3 070.0,083.3,070.0,52.000,52.377,,12.6100,,12.6092,,12.6096,33.1780,,33.1838,33.1766,,33.1786,33.1812,5.5196,,5.7767,5.7979,5.4085,,5.7424,5.7869,5.7924,240.480,251.9947,222.6260,235.638,267.8699,221.1905,221.9083,0.1069,,0.6277,0.5587, ,, , ,25.0592,,25.0583,,0.7993,81.8876,,,,1.1084E+01,,1.0000E-12,,12.6031,12.6023,0.1581,290.489,91.326,89.485,,,,,,,,,,,,